Tracking 30970 objects as of 3-Jul-2025
HD Live streaming from Space Station
objects crossing your sky now

STARLINK-6205

Track STARLINK-6205 now!
10-day predictions
STARLINK-6205 is classified as:


NORAD ID: 56898
Int'l Code: 2023-083Y
Perigee: 565.4 km
Apogee: 567.1 km
Inclination: 43.0 °
Period: 95.8 minutes
Semi major axis: 6937 km
RCS: Unknown
Launch date: June 12, 2023
Source: United States (US)
Launch site: AIR FORCE EASTERN TEST RANGE (AFETR)
Your satellite tracking list
Your tracking list is empty




NASA's NSSDC Master Catalog

Two Line Element Set (TLE):
1 56898U 23083Y   25183.85690916 -.00000052  00000-0  11250-4 0  9996
2 56898  43.0054 358.8987 0001208 272.3027  87.7677 15.02532691114200
Source of the keplerian elements: AFSPC